Location: Muenchen
(48.1800°N, 11.5800°E)
Time: 09:03:29
(UTC+01:00)

ISS - Visible Passes

Search period start: 24 March 2017 00:00
Search period end: 03 April 2017 01:00
Orbit: 399 x 409 km, 51.6° (Epoch: 24 March)

Date Brightness Start Highest point End Pass type
(mag) Time Alt. Az. Time Alt. Az. Time Alt. Az.
27 Mar -1.3 21:50:32 10° SW 21:51:06 14° SW 21:51:06 14° SW visible
28 Mar -3.0 20:58:31 10° SSW 21:01:25 30° SE 21:01:47 29° SE visible
28 Mar -0.6 22:34:29 10° W 22:34:29 10° W 22:34:29 10° W visible
29 Mar -3.7 21:42:02 10° WSW 21:44:54 67° WSW 21:44:54 67° WSW visible
30 Mar -3.8 20:49:41 10° SW 20:52:53 58° SSE 20:55:05 19° ENE visible
30 Mar -1.5 22:26:16 10° W 22:27:46 24° WNW 22:27:46 24° WNW visible
31 Mar -3.4 21:33:41 10° W 21:36:55 59° NNW 21:37:45 42° NE visible
01 Apr -3.8 20:41:09 10° WSW 20:44:26 81° NNW 20:47:37 11° ENE visible
01 Apr -2.2 22:17:59 10° WNW 22:20:17 34° NW 22:20:17 34° NW visible
02 Apr -3.0 21:25:23 10° W 21:28:34 46° N 21:30:01 26° NE visible
02 Apr -0.7 23:02:08 10° WNW 23:02:41 14° WNW 23:02:41 14° WNW visible
